Regional Weather Roundup
Issued by NWS

Home | Current Version | Previous Version | Text Only | Print | Product List | Glossary On
Versions: 1 2 3 4 5 6 7 8 9 10 11 12 13 14 15 16 17 18 19 20 21 22 23 24 25 26 27 28 29 30 31 32 33 34 35 36 37 38 39 40 41 42 43 44 45 46 47 48 49 50
000
ASUS43 KDTX 181410
RWRMI
MICHIGAN HOURLY REGIONAL WEATHER ROUNDUP
NATIONAL WEATHER SERVICE DETROIT/PONTIAC MI
900 AM EST THU DEC 18 2014

NOTE: "FAIR" INDICATES FEW OR NO CLOUDS BELOW 12,000 FEET WITH NO
SIGNIFICANT WEATHER AND/OR OBSTRUCTION TO VISIBILITY.

MIZ047>049-052>055-059>063-066>070-074>076-081>083-181500-
SOUTHEAST LOWER MICHIGAN

CITY           SKY/WX    TMP DP  RH WIND       PRES   REMARKS
ADRIAN         CLOUDY    29  23  78 W6        30.22R
ALMA           CLOUDY    30  27  87 CALM      30.19S
ANN ARBOR      CLOUDY    30  23  75 W7        30.19S
BAD AXE        CLOUDY    27  25  92 N8        30.18S
DETROIT CITY   CLOUDY    32  25  75 W7        30.19S
DETROIT        CLOUDY    30  24  78 W9        30.20F
FLINT          CLOUDY    31  27  85 NW6       30.18S
GROSSE ILE     CLOUDY    30  25  80 W5        30.19S
HILLSDALE      CLOUDY    29  26  89 W6        30.20R
HOWELL         CLOUDY    30  26  88 W6        30.17S

CITY           SKY/WX    TMP DP  RH WIND       PRES   REMARKS
JACKSON        CLOUDY    29  24  82 W7        30.20R
LAMBERTVILLE   CLOUDY    32  25  74 SW6       30.22R
LANSING        CLOUDY    30  26  85 W7        30.20R
LAPEER         NOT AVBL
MASON          CLOUDY    29  25  86 W6        30.19R
MONROE         CLOUDY    30  25  80 CALM      30.19S
MT. CLEMENS    CLOUDY    30  30  99 W7        30.16F
PONTIAC        CLOUDY    29  25  85 NW6       30.16S
PORT HOPE        N/A     29  24  82 NW7       30.16R
PORT HURON     CLOUDY    28  28 100 N5        30.18S
TRI CITIES     CLOUDY    31  25  78 N12       30.19S
$$
MIZ043>046-050>051-056>058-064>065-071>073-077>080-181500-
SOUTHWEST LOWER MICHIGAN

CITY           SKY/WX    TMP DP  RH WIND       PRES   REMARKS
BATTLE CREEK   CLOUDY    30  23  75 W8        30.21R
BENTON HARBOR  CLOUDY    28  22  78 S6        30.26R
BIG RAPIDS     CLOUDY    28  27  93 NW7       30.17F
COLDWATER      CLOUDY    28  24  85 SW7       30.22R
HOLLAND        CLOUDY    33  25  72 W5        30.24R
GRAND RAPIDS   CLOUDY    31  27  85 W7        30.21R
KALAMAZOO      CLOUDY    29  23  78 W10       30.23R
MARSHALL       CLOUDY    28  24  83 SW6       30.21R
MUSKEGON       LGT SNOW  32  30  92 CALM      30.22R
$$
MIZ016>042-181500-
NORTHERN LOWER MICHIGAN

CITY           SKY/WX    TMP DP  RH WIND       PRES   REMARKS
ALPENA         CLOUDY    23  19  85 N15       30.19R
BEAVER ISLAND  CLEAR     22  14  72 NE9       30.24S
BELLAIRE       CLOUDY    26  22  85 N5        30.22S
CADILLAC       CLOUDY    24  23  96 N6        30.16S
CHARLEVOIX     CLEAR     22  18  85 NE6       30.25R
FRANKFORT      CLOUDY    28  25  88 CALM      30.22S
GAYLORD        CLOUDY    19  18  95 N6        30.16R
GRAYLING       CLOUDY    23  21  91 CALM      30.18S
HARBOR SPRINGS CLEAR     18  11  73 NE5       30.22S
HOUGHTON LAKE  CLOUDY    23  20  88 N5        30.18R
MANISTEE       CLOUDY    28  25  86 NE9       30.22S
OSCODA         CLOUDY    24  21  89 N6        30.19R
PELLSTON       CLEAR     15  10  80 N8        30.23S
TRAVERSE CITY  CLOUDY    28  22  78 N7        30.22R
$$
MIZ007>008-015-181500-
EASTERN UPPER MICHIGAN

CITY           SKY/WX    TMP DP  RH WIND       PRES   REMARKS
KINROSS        PTCLDY    12   7  79 N6        30.25R
MACKINAC ISLAN PTCLDY    17  13  84 N16       30.23F
NEWBERRY       PTCLDY    13  11  93 N7        30.25S
S. S. MARIE    PTCLDY    12  -2  53 N7        30.26R
$$
MIZ004>006-011>014-085-181500-
CENTRAL UPPER MICHIGAN

CITY           SKY/WX    TMP DP  RH WIND       PRES   REMARKS
MANISTIQUE     PTCLDY    18  15  87 N9        30.25S
ESCANABA       PTCLDY    19  16  86 NW3       30.28R
MENOMINEE      CLOUDY    25  19  80 N10       30.27S
SAWYER-GWINN   CLOUDY    23  19  86 NE6       30.25R
$$
MIZ001>003-009>011-084-181500-
WESTERN UPPER MICHIGAN

CITY           SKY/WX    TMP DP  RH WIND       PRES   REMARKS
IRON MOUNTAIN  PTCLDY    17  13  84 CALM      30.25S
HOUGHTON       PTCLDY     2   0  91 NW5       30.29S
COPPER HARBOR    N/A     26  17  68 E7        30.32R
IRONWOOD       CLOUDY    18  18 100 E5        30.25F
$$

ABBREVIATIONS USED IN REMARKS
   TC - TEMPERATURE IN CELSIUS
  WCI - WIND CHILL INDEX
   HX - HEAT INDEX
  VSB - VISIBILITY




USA.gov is the U.S. government's official web portal to all federal, state and local government web resources and services.